Lid_Strength_Index
10 9 8 9 9 9 11 11 13 11 10 9 8 7 7 7 5 5 5 5 5 5 5 4 4 3 3 2 2 2 2 2 2 2 2 2 1 1 1 1 1 1 1 3
11 8 8 9 8 8 9 9 10 10 10 7 7 7 6 6 5 6 6 5 5 5 4 4 4 3 3 3 2 2 2 2 2 2 3 2 2 3 2 1 1 1 3 6
14 10 10 12 10 9 9 9 10 13 10 6 7 7 7 6 6 6 5 5 5 5 4 4 3 3 3 3 2 2 2 2 2 3 3 3 3 4 2 1 2 3 5 7
13 12 16 10 7 7 8 9 8 8 8 7 7 7 6 5 6 6 5 5 5 4 4 3 3 3 2 2 2 2 2 3 2 2 3 2 3 3 3 2 3 4 5 6
14 14 11 9 9 8 10 10 8 8 7 7 6 6 7 5 5 5 5 4 4 3 3 3 3 2 2 3 3 2 3 3 2 3 2 2 3 3 3 3 4 4 5 7
12 15 16 12 8 6 7 14 8 8 8 10 7 11 9 5 5 4 4 4 4 3 3 3 3 2 3 3 3 3 3 3 2 2 2 3 3 3 2 3 4 4 6 7
13 14 12 9 7 6 14 14 8 7 8 8 9 7 6 5 5 4 4 4 3 3 3 3 2 3 4 3 3 2 2 2 2 2 2 2 2 1 2 3 4 5 6 6
13 15 17 7 7 11 10 7 7 7 6 7 6 5 5 5 5 5 4 4 3 4 4 3 3 3 4 3 2 2 2 2 2 2 1 1 1 1 2 4 5 6 6 5
11 12 8 7 8 6 6 7 6 6 5 5 5 5 5 5 5 5 4 4 3 3 4 3 2 3 3 3 2 2 2 2 2 2 1 1 2 2 4 5 5 6 5 5
10 9 8 7 6 5 5 6 5 4 4 4 5 5 5 5 5 5 4 4 4 3 4 4 3 2 2 2 2 2 2 2 2 2 2 1 1 4 4 5 6 5 5 5
9 9 7 6 6 5 5 4 4 4 4 5 5 5 4 5 5 5 4 4 3 4 4 3 3 2 2 2 2 2 2 2 2 2 2 2 4 4 4 6 4 5 4 5
12 8 8 8 5 4 5 5 4 4 5 4 4 5 4 5 4 4 4 4 4 4 4 3 3 3 2 2 2 2 3 2 2 2 2 4 7 8 10 9 10 9 8 7
8 6 6 5 5 4 5 4 4 4 4 4 4 4 4 5 5 4 4 4 4 4 3 3 3 3 2 1 1 2 3 3 3 3 2 5 6 8 10 9 10 10 9 9
4 5 7 5 6 4 4 4 3 3 3 3 4 4 6 5 4 6 4 4 4 4 3 3 3 3 2 2 2 2 2 5 2 2 3 3 4 5 6 8 9 9 9 9
5 4 5 4 4 4 4 3 4 4 4 4 4 4 5 6 5 4 3 3 3 3 3 3 3 3 1 2 3 2 2 2 2 2 3 3 3 5 6 6 7 8 7 9
4 4 4 5 5 4 4 4 4 4 4 5 4 4 4 4 4 4 3 3 4 4 3 3 3 2 2 2 3 3 3 3 3 4 4 3 4 5 7 7 7 7 7 5
6 7 6 6 5 5 4 4 4 4 4 4 4 4 4 4 4 4 3 3 3 3 2 2 2 2 2 2 3 3 4 4 4 6 5 5 5 6 6 5 5 5 3 3
4 4 4 4 5 5 4 4 4 4 4 4 5 5 4 5 5 4 4 3 3 3 2 2 1 1 2 2 3 4 4 5 4 5 5 5 5 5 5 5 4 3 3 3
4 4 4 4 4 4 4 4 4 4 4 4 4 4 4 4 4 4 3 3 4 4 3 2 3 3 4 3 3 3 4 4 4 5 4 4 5 4 4 3 3 3 4 3
4 4 4 4 3 4 4 4 4 4 4 3 3 4 4 4 3 3 3 4 3 3 2 3 3 3 2 1 1 3 3 3 4 4 4 5 4 4 3 4 3 3 2 3
4 4 4 4 4 3 3 3 4 4 4 5 5 4 4 3 3 3 4 4 3 2 2 3 2 2 3 3 4 4 4 3 4 4 4 4 4 3 3 3 3 3 3 3
4 4 4 4 4 4 4 3 3 3 3 4 3 3 4 4 3 3 3 3 4 5 3 3 2 2 3 2 4 5 5 4 5 4 4 3 3 3 3 3 3 2 2 1
4 4 4 4 4 4 3 3 3 3 4 3 3 3 4 3 3 4 5 4 5 5 3 3 4 4 3 4 4 5 4 4 4 3 3 3 3 3 2 3 2 2 2 2
4 4 4 3 3 4 5 4 3 4 3 3 3 2 3 3 3 2 3 5 6 4 3 6 5 5 5 6 5 5 3 3 3 3 3 4 2 2 2 3 3 3 2 2
4 4 4 4 4 4 4 3 4 3 3 3 3 2 2 2 3 3 2 4 6 4 5 6 5 5 5 4 4 3 2 2 4 3 3 3 2 2 2 2 2 2 2 2
4 4 4 4 4 4 5 3 4 4 4 4 3 3 2 2 2 2 3 4 4 4 4 7 6 5 5 4 3 2 2 2 3 3 3 3 2 2 2 2 2 3 1 2
4 5 4 4 3 3 3 3 3 4 3 3 3 2 2 2 3 3 5 4 4 3 5 3 4 5 4 3 3 2 2 2 3 2 3 3 2 3 3 3 2 2 2 2